Location: Newark
(39.0622°N, 106.5590°E)
Time: 20:41:51
(UTC+00:00)

Hubble Space Telescope - Visible Passes

Search period start: 08 December 2019 00:00
Search period end: 18 December 2019 00:00
Orbit: 536 x 540 km, 28.5° (Epoch: 07 December)

Date Brightness Start Highest point End Pass type
(mag) Time Alt. Az. Time Alt. Az. Time Alt. Az.
12 Dec 3.7 23:07:44 10° S 23:08:46 11° SSE 23:09:49 10° SSE visible
13 Dec 3.5 22:56:14 10° S 22:58:03 13° SSE 22:59:51 10° SE visible
14 Dec 3.4 22:45:05 10° SSW 22:47:19 14° SSE 22:49:33 10° SE visible
15 Dec 3.3 22:34:05 10° SSW 22:36:35 16° S 22:39:07 10° SE visible
16 Dec 3.1 22:23:22 11° SSW 22:25:53 17° S 22:28:36 10° SE visible
17 Dec 2.9 22:13:34 15° SSW 22:15:10 18° S 22:18:01 10° SE visible
